{"data":{"norad_id":43759,"epoch":"2026-09-19T08:57:12.259584Z","epoch_age_seconds":111783,"freshness":"FRESH","line1":"1 43759U 18099B   26262.37305856  .00002637  00000+0  14377-3 0  9992","line2":"2 43759  97.4163 309.1879 0007939 343.9211  16.1769 15.15221255426885","mean_motion":15.15221255,"eccentricity":0.0007939,"inclination_deg":97.4163,"raan_deg":309.1879,"arg_perigee_deg":343.9211,"mean_anomaly_deg":16.1769,"bstar":0.00014377,"rev_number":42688,"period_min":95.035625671711,"perigee_km":514.83025588953,"apogee_km":525.78360516242,"semimajor_km":6898.443930526,"source":"CELESTRAK","updated_at":"2026-09-20T09:00:48.033169Z"}}